Lid_Strength_Index
11 13 15 13 13 14 14 15 16 14 12 13 13 14 12 11 11 12 12 11 12 11 9 9 9 9 8 6 4 2 2 1 2 3 2 2 2 1 1 1 1 2 2 3
12 15 12 12 13 13 15 15 16 14 13 13 14 14 12 12 11 10 11 11 12 12 11 9 9 10 9 8 4 2 2 1 1 1 1 2 2 5 2 0 1 1 2 3
14 13 10 11 13 13 15 15 16 15 14 15 15 16 15 13 12 11 11 11 11 11 11 10 10 10 10 9 6 3 2 2 1 1 4 6 6 6 6 3 2 1 2 3
13 11 12 13 13 13 16 13 14 15 16 18 16 20 17 14 13 12 11 12 12 11 11 10 10 10 10 9 8 4 2 2 2 3 3 4 3 3 3 4 3 4 3 2
14 13 12 14 13 12 14 12 14 15 16 18 18 19 17 16 15 13 12 12 12 11 10 10 10 10 8 9 9 5 3 3 4 3 3 3 4 5 8 8 7 6 6 5
13 11 12 12 12 12 11 13 14 15 17 20 18 18 19 16 14 14 12 11 11 9 9 10 10 10 9 9 9 7 4 4 4 4 5 4 4 8 8 9 8 8 6 6
14 13 12 11 13 12 13 15 19 20 21 20 18 19 18 14 13 13 11 11 11 11 10 10 10 10 10 9 9 8 8 7 6 5 6 6 6 8 7 8 8 9 7 7
16 17 12 11 12 13 14 15 18 23 22 20 17 19 16 13 12 11 11 11 10 10 10 10 10 9 10 10 9 8 8 8 8 6 5 6 7 7 7 7 7 7 7 7
16 16 12 12 12 11 13 16 14 17 24 21 18 17 14 12 12 11 11 10 11 10 10 10 9 9 9 9 9 9 8 8 8 7 7 7 6 6 7 7 7 8 8 9
13 15 12 12 11 12 13 12 16 17 23 24 20 19 17 14 12 11 11 11 10 10 10 10 10 9 9 9 9 8 8 8 8 8 8 7 7 7 7 8 8 8 8 9
12 14 15 13 13 14 13 14 14 14 17 21 22 19 14 13 11 11 11 11 11 10 10 10 10 10 10 9 9 9 9 9 9 8 8 8 8 8 8 8 8 9 9 10
12 13 17 16 13 13 14 13 13 16 18 16 17 16 11 11 11 11 11 10 10 10 10 10 10 10 10 10 10 9 9 9 9 9 9 9 9 9 9 9 9 9 10 11
11 15 21 17 14 13 15 14 12 13 15 17 19 18 12 12 11 11 11 10 10 10 10 10 10 10 10 10 10 10 9 9 9 9 9 9 9 9 10 10 10 10 11 11
9 14 16 18 16 14 15 14 14 13 19 17 16 15 14 13 12 11 10 10 10 10 10 10 10 10 10 10 10 10 10 10 10 9 9 10 10 10 10 10 10 11 12 12
11 15 14 13 13 13 14 14 13 15 14 16 15 14 13 11 11 11 11 11 11 11 10 10 11 10 10 10 10 10 10 11 10 10 10 9 10 10 10 11 12 12 13 13
11 15 14 15 14 13 15 15 14 13 13 13 14 14 11 11 11 12 12 12 12 12 11 10 10 11 11 10 11 11 11 11 12 11 11 11 11 12 12 13 13 13 13 14
13 14 15 17 15 15 19 15 14 13 12 12 15 12 11 12 12 12 13 12 12 12 11 11 11 11 12 12 12 12 12 13 13 14 13 14 13 13 13 13 13 14 14 15
14 14 16 20 16 22 17 14 12 13 11 11 12 14 14 13 13 12 13 13 13 12 12 12 12 12 12 12 13 13 15 15 15 15 15 15 14 15 14 14 14 15 15 15
10 14 17 18 19 19 16 15 13 13 14 11 11 14 14 13 13 13 12 12 12 12 12 12 12 12 12 13 14 15 15 15 15 15 15 14 15 15 15 15 15 16 17 18
13 12 16 21 23 23 18 16 12 11 18 16 13 14 14 15 17 15 13 12 12 12 12 12 12 13 14 14 14 15 15 15 15 15 15 14 15 16 15 15 16 17 18 17
15 13 15 16 20 20 16 15 13 17 17 15 13 14 14 16 15 13 12 12 13 12 12 12 13 13 14 14 15 16 15 16 14 15 15 15 15 16 15 16 17 19 18 15
16 15 15 15 17 20 14 12 14 14 13 13 13 13 14 14 13 13 13 13 13 12 12 12 14 14 13 14 16 15 15 14 14 15 15 16 17 16 16 19 19 20 14 14
17 15 16 14 14 11 12 11 9 9 10 11 11 11 11 12 13 12 12 12 12 11 11 12 13 13 13 14 15 15 14 14 15 18 18 19 18 18 17 19 18 16 14 14
14 12 15 14 13 11 10 10 9 10 11 11 10 10 10 11 11 11 11 11 11 11 11 13 13 13 13 14 14 15 15 15 19 17 17 17 17 17 18 16 16 15 15 14
14 13 15 15 12 12 11 10 10 11 11 11 11 11 11 12 11 11 11 12 11 11 13 14 14 14 14 14 15 15 14 13 15 16 16 16 16 17 15 14 15 14 16 15
14 14 15 17 12 12 12 11 11 12 12 13 13 13 12 12 12 12 13 13 14 14 14 15 15 16 16 17 18 19 20 18 16 14 16 16 16 16 15 17 15 10 10 10